Theta_e
291 283 281 280 281 284 285 285 286 287 286 286 285 284 282 282 284 287 289 292 292 290 288 289 289 289 291 292 295 297 297 299 298 301 309 311 311 315 317 317 318 319 322 326 328 328 330 333 336 339 339 337 339 340 340 340 340 340 340 341 339 341 342 340 339 342 341 339 338 338 338 336 337 336 337 337 338 340 340 340 341 340 339 339 339 339
290 283 282 284 286 287 287 288 287 286 286 286 284 283 281 283 281 286 288 292 293 289 286 289 288 288 291 293 295 297 297 296 297 297 300 306 309 309 314 317 317 319 322 326 328 332 337 338 337 337 338 338 337 339 339 339 340 340 341 341 341 340 342 341 340 341 341 340 338 336 336 336 336 335 335 335 337 339 340 340 340 340 339 339 339 339
283 281 285 287 289 289 289 289 289 287 286 285 283 282 281 280 284 286 287 289 291 290 287 289 288 287 290 293 295 297 297 296 297 298 298 301 304 309 311 315 317 318 321 326 328 333 337 337 336 336 336 337 339 340 339 340 340 339 340 342 341 341 341 341 341 341 341 339 339 338 337 337 335 336 337 337 338 340 339 339 340 340 339 339 339 339
282 283 288 290 289 288 289 289 289 287 287 284 283 281 279 281 283 278 283 288 289 290 286 289 288 289 289 292 294 297 297 297 298 298 299 303 310 311 312 314 316 318 323 327 331 335 337 337 337 336 337 337 338 340 339 339 339 339 340 341 341 341 341 342 341 342 341 341 340 340 340 338 338 335 336 336 339 339 339 338 339 340 339 339 338 339
285 289 292 291 289 290 288 287 286 284 281 284 284 281 280 283 282 283 282 286 287 288 288 286 285 286 288 288 290 295 298 297 297 299 299 299 310 315 318 318 318 319 325 327 330 335 336 336 336 337 338 339 338 339 339 339 339 340 340 342 342 341 341 342 342 342 341 342 339 340 340 339 337 336 335 334 334 336 338 338 337 338 339 339 338 338
288 291 293 292 290 290 288 285 285 285 280 281 284 285 284 284 284 284 285 284 281 280 283 286 277 279 286 287 289 292 295 295 296 296 295 297 301 312 315 318 320 322 325 325 328 333 336 336 336 337 338 339 339 340 341 341 341 340 340 342 343 342 342 342 342 342 342 340 339 338 336 334 333 332 332 331 332 333 334 336 337 338 338 338 337 338
288 293 292 289 288 287 286 285 286 287 282 280 281 285 286 286 285 284 284 282 276 276 281 287 277 275 282 287 288 289 291 293 293 295 296 297 297 306 314 318 320 321 322 322 322 325 329 333 335 336 337 339 339 340 342 342 341 341 340 342 343 342 342 343 343 342 342 340 339 338 337 335 334 333 332 332 333 334 335 336 336 336 337 337 337 337
293 291 290 290 289 286 284 283 285 287 282 280 284 286 286 285 285 285 284 283 278 284 285 285 283 278 277 283 288 290 291 291 291 292 294 295 295 299 308 313 318 321 323 324 325 327 330 328 329 333 337 338 339 341 342 342 342 340 340 341 342 342 342 343 343 342 342 340 339 338 337 336 335 334 333 333 333 333 336 334 335 335 335 336 337 337
291 289 289 289 288 284 283 286 288 288 285 284 286 289 287 287 285 285 283 281 282 281 277 279 284 278 276 283 289 291 289 289 290 290 291 294 295 295 298 302 310 319 322 325 326 327 329 330 330 330 332 337 339 340 341 342 342 341 341 341 342 342 342 342 343 342 341 341 340 339 338 337 336 335 335 334 334 333 335 333 334 335 335 335 336 337
292 292 292 292 288 284 287 288 289 289 284 286 288 289 289 287 287 286 282 282 279 277 272 279 282 276 274 280 282 288 289 287 288 290 290 292 293 294 296 298 306 316 321 324 327 328 330 332 333 334 334 334 338 340 341 342 342 341 341 341 341 341 342 342 342 342 341 340 340 339 338 337 336 335 334 335 334 333 333 332 332 334 334 334 335 336
293 298 300 294 289 290 290 291 291 289 290 291 287 285 283 284 282 284 281 280 276 271 273 280 283 279 274 277 282 285 286 287 288 289 290 293 294 296 297 296 307 313 319 322 325 329 330 332 334 336 335 336 339 340 341 341 341 341 341 341 340 341 342 342 342 341 340 340 340 339 339 338 336 336 334 333 333 333 331 332 332 333 334 334 334 335
292 293 291 291 297 294 293 290 291 291 290 288 284 282 280 280 280 278 276 278 272 270 275 280 282 280 274 275 281 285 288 289 290 289 290 291 292 293 294 296 299 314 318 321 323 326 328 329 334 335 337 338 338 340 340 341 341 340 340 341 340 340 341 342 342 341 340 340 340 340 339 338 338 337 336 334 333 333 332 332 332 332 333 334 334 334
285 287 291 292 299 293 289 287 287 288 287 285 282 280 275 273 273 268 273 269 268 272 277 281 282 278 275 278 285 287 289 289 290 290 291 291 291 293 294 295 298 300 312 320 322 323 326 329 332 332 331 328 331 338 340 340 340 340 340 340 339 339 341 341 341 340 340 340 340 340 340 339 339 338 337 335 334 334 333 332 332 331 331 333 333 334
280 287 290 291 291 296 289 284 281 281 283 284 282 277 274 270 267 265 267 271 273 276 281 282 284 278 279 282 285 287 289 290 290 290 291 291 291 293 294 295 295 299 303 315 320 323 325 329 331 330 329 329 330 335 340 340 340 340 340 339 339 339 341 341 341 340 340 340 340 341 341 340 339 338 338 337 336 335 334 334 333 333 332 332 333 334
273 276 282 288 283 292 290 288 285 284 285 284 287 283 277 273 272 265 271 268 270 273 277 284 280 275 277 278 287 290 291 292 292 292 292 292 292 292 293 294 295 298 300 306 318 323 326 328 330 330 331 334 337 339 340 340 340 340 339 339 339 339 340 341 340 340 339 340 340 341 341 341 340 339 338 338 337 336 335 335 334 334 334 333 334 335
281 278 285 291 292 292 289 292 292 288 285 284 287 285 280 277 277 275 273 276 274 274 273 276 276 279 280 286 291 291 291 292 293 293 294 293 295 295 294 294 295 298 299 302 312 321 327 328 329 331 334 337 340 340 340 340 340 339 339 339 339 339 340 341 340 340 340 340 341 341 341 341 341 340 339 338 336 336 337 336 335 335 335 335 334 335
279 278 286 291 293 290 290 293 293 290 278 283 284 279 281 285 284 277 274 279 276 273 271 274 278 281 284 285 287 289 290 291 292 292 293 293 294 293 293 293 295 299 300 303 313 320 323 324 325 325 329 337 340 341 340 340 340 339 339 338 338 339 340 341 341 340 340 340 340 341 342 342 341 340 338 338 337 336 337 337 336 336 336 336 336 336
280 279 286 288 288 291 292 293 292 292 289 285 280 282 288 291 288 279 272 272 272 269 269 275 276 276 277 275 286 287 287 289 290 290 292 292 293 292 293 293 297 298 299 300 311 320 323 324 324 325 324 325 334 341 341 340 341 340 340 339 338 338 338 340 341 340 340 339 339 340 341 341 341 341 340 339 339 338 337 337 337 337 337 337 337 338
287 276 281 288 290 292 294 292 288 290 292 287 284 293 281 273 277 277 276 268 267 266 268 273 275 277 277 279 284 285 286 287 288 289 290 291 292 293 293 292 295 297 298 299 301 313 320 322 324 323 324 325 326 334 340 341 341 341 340 340 339 338 339 340 341 341 341 340 340 341 341 342 341 342 341 340 340 339 338 337 338 338 338 338 338 338
288 278 279 286 289 291 289 286 279 281 288 292 291 287 290 283 279 277 276 275 275 267 267 270 275 275 282 280 284 286 287 288 288 289 290 291 292 293 293 293 293 295 297 298 301 304 313 320 321 322 322 323 324 328 336 341 341 340 340 340 339 340 340 340 340 341 340 340 340 340 342 342 342 342 342 341 340 339 339 338 338 338 338 338 338 338
283 285 274 280 289 289 279 284 280 282 281 284 285 281 284 284 286 284 282 280 275 268 267 268 269 277 283 285 286 286 287 288 289 290 291 291 292 293 293 294 294 295 297 297 300 301 306 315 321 322 323 325 327 332 335 341 341 341 341 340 339 339 339 339 340 340 340 340 339 339 340 341 342 342 342 341 341 340 340 339 338 338 339 339 338 339
282 279 278 280 283 281 284 289 289 288 287 286 284 281 283 280 277 275 273 282 280 277 270 269 273 280 286 291 290 288 290 290 291 291 290 291 292 292 293 294 294 296 297 297 298 301 304 309 318 322 325 327 329 334 338 341 341 341 340 340 340 340 340 340 340 340 340 340 340 339 340 341 342 342 342 341 341 341 341 340 340 339 339 338 339 339
291 285 282 278 281 283 287 291 293 293 292 290 287 283 287 283 280 276 271 272 278 279 281 277 273 279 288 290 291 291 291 291 291 290 290 291 292 292 293 294 295 294 296 299 298 301 302 307 313 318 323 328 332 336 339 340 341 341 341 340 340 339 339 340 341 341 341 341 340 340 340 341 341 342 342 341 341 341 341 341 340 340 339 339 339 340
298 282 278 280 283 287 290 291 292 293 292 288 289 289 286 283 285 281 278 277 278 278 277 274 273 280 287 291 291 291 290 291 291 291 291 292 291 293 293 293 294 295 295 298 299 300 301 303 307 316 319 325 330 333 336 338 340 341 341 341 340 339 339 340 341 342 341 341 340 340 340 340 341 341 342 341 341 341 342 342 341 340 340 340 340 339
284 282 282 276 275 279 280 282 283 288 289 284 284 286 288 288 288 287 287 284 277 278 280 275 273 279 287 292 291 290 291 291 292 293 293 292 292 292 293 294 294 296 296 296 297 298 300 300 302 311 318 320 325 328 325 321 319 320 328 339 340 340 340 341 342 342 341 341 340 340 340 340 340 340 341 341 342 342 342 342 341 341 340 340 339 340
289 285 284 277 274 272 271 269 273 276 281 284 287 288 289 288 287 284 277 278 275 279 282 278 278 285 288 289 290 291 291 292 293 294 295 295 293 293 294 295 294 295 296 296 296 297 299 301 302 304 310 316 320 324 323 322 320 321 320 321 328 339 340 341 342 341 341 341 340 340 339 339 340 340 340 341 342 342 342 342 341 341 341 341 340 340
285 286 284 283 280 279 280 281 284 287 284 282 285 286 287 289 289 288 285 280 278 281 280 282 282 284 286 288 289 290 291 291 291 293 293 294 295 295 292 293 294 295 296 297 297 296 298 299 301 301 303 308 314 319 322 322 321 322 322 323 322 322 333 341 341 341 341 341 340 340 339 339 340 340 340 341 342 342 342 342 341 341 341 341 341 340
285 281 284 286 285 285 287 286 288 289 285 286 285 286 287 287 287 286 283 281 286 283 279 285 287 284 286 289 290 291 292 292 292 293 293 294 295 295 295 294 298 295 295 296 298 298 296 298 299 301 301 302 308 313 317 319 320 320 321 324 325 324 323 331 340 341 341 340 340 340 340 340 340 340 341 341 342 343 343 342 341 341 341 341 340 340
286 282 283 285 286 288 288 288 289 288 288 287 287 287 286 287 287 285 285 287 287 282 280 286 288 286 288 290 292 293 293 293 293 294 295 295 296 296 296 294 294 295 294 294 295 296 297 296 298 299 300 301 303 308 310 313 316 319 321 323 323 323 323 323 329 339 340 340 339 340 340 341 341 341 341 341 342 342 342 342 341 341 341 341 340 340
289 283 285 288 286 287 288 289 290 288 288 287 287 287 287 287 286 287 286 287 287 285 287 287 287 287 290 291 293 294 296 296 296 297 297 296 295 296 296 295 295 296 296 295 295 296 297 298 298 299 300 300 301 303 306 308 311 316 319 321 321 321 322 324 324 331 339 339 339 340 340 341 341 341 341 341 341 341 342 342 341 340 340 341 341 340
290 285 291 288 284 285 288 290 290 289 287 285 288 287 288 288 287 287 287 287 287 286 287 287 286 286 291 295 295 297 297 298 297 296 296 296 296 296 295 296 296 296 296 296 296 295 297 297 298 299 300 300 300 301 303 306 308 311 314 318 319 320 322 322 322 325 336 338 339 339 340 340 340 340 340 341 341 341 341 341 341 340 340 340 340 340
292 286 291 287 283 283 287 288 289 289 288 286 286 286 286 286 283 285 284 287 285 284 285 285 283 284 290 296 297 297 297 296 295 295 296 296 297 297 296 296 296 296 297 297 297 296 296 297 296 299 301 301 301 301 302 303 305 308 311 312 315 317 320 323 325 325 328 337 338 338 338 339 340 339 340 341 341 341 341 342 341 340 340 340 340 339
290 286 285 284 281 282 286 288 287 287 286 283 284 286 286 286 287 287 288 289 288 287 284 282 283 289 291 294 292 291 293 294 295 295 296 297 297 297 296 296 297 297 297 298 297 297 296 296 296 297 301 303 304 304 303 304 304 305 308 310 312 313 314 318 325 328 330 334 338 338 338 338 338 339 339 340 341 341 341 341 341 340 339 339 340 339
290 289 286 287 281 283 286 286 287 282 277 279 287 289 287 285 285 283 284 286 288 288 286 288 288 290 291 291 289 289 289 291 293 296 298 298 297 297 297 297 297 298 298 298 298 298 297 297 297 298 300 302 305 308 308 308 306 306 308 309 310 310 311 314 317 322 326 328 332 337 338 338 337 337 338 339 340 340 340 340 340 340 340 340 339 338
287 287 285 287 283 283 285 285 281 275 278 286 290 291 292 291 290 287 287 288 288 289 288 286 287 288 290 291 292 292 292 293 294 295 296 298 298 297 296 297 297 298 298 298 298 297 297 297 297 297 298 302 305 305 307 309 310 310 310 310 310 310 310 310 311 314 318 323 327 333 337 338 337 337 337 338 339 339 339 339 340 340 339 339 338 338
285 285 286 285 284 285 283 282 274 277 285 288 290 291 293 292 291 288 285 289 290 290 288 286 288 290 292 292 293 294 294 294 294 295 296 297 298 297 297 297 297 297 297 298 298 298 296 296 296 297 297 301 306 308 308 308 307 308 310 311 311 310 310 310 310 310 313 318 323 328 333 337 337 337 336 337 338 338 338 339 339 339 338 337 338 338
289 287 284 283 288 280 282 281 280 286 284 286 286 287 289 285 286 284 280 284 290 292 289 286 288 289 290 290 291 291 292 292 290 291 295 297 297 298 298 298 299 298 298 298 299 299 298 298 297 297 299 298 301 305 307 308 309 308 307 308 309 309 309 309 309 309 311 315 320 325 330 335 337 336 336 336 337 337 338 338 338 338 338 336 336 336
292 285 287 283 282 283 281 279 280 279 276 281 287 291 293 293 293 291 287 284 291 293 293 289 287 288 288 289 291 294 298 294 286 287 293 295 297 297 298 299 300 300 300 299 298 298 298 298 298 298 299 297 298 300 304 306 309 308 307 307 307 307 307 308 309 310 311 313 318 323 329 334 335 336 335 336 336 337 338 338 339 339 336 336 335 335
293 291 288 283 281 282 281 278 278 277 279 284 286 290 293 294 293 292 285 280 290 293 293 291 288 289 290 292 295 298 295 290 291 294 296 296 296 297 297 298 299 300 300 300 299 296 296 297 298 301 302 300 300 301 303 306 308 309 308 308 307 307 306 306 307 309 311 313 317 322 327 332 335 336 336 335 336 337 337 337 338 338 336 336 336 335
286 284 283 282 281 282 281 279 277 282 281 286 289 291 293 294 293 288 277 280 290 292 292 291 291 293 295 297 299 297 294 291 294 299 300 297 297 297 297 297 298 299 299 300 301 299 298 299 300 302 304 305 305 305 306 307 308 309 310 310 309 309 308 307 308 309 311 313 316 320 325 331 334 335 336 335 336 337 337 338 337 337 335 335 335 334
282 282 282 281 280 281 281 281 282 282 287 291 291 293 294 295 290 279 275 283 291 292 293 294 294 296 298 298 299 295 298 300 301 304 302 298 297 297 298 299 300 300 300 300 300 300 298 299 301 302 304 305 306 308 309 309 308 308 308 310 311 310 311 310 309 310 311 314 317 320 324 329 334 335 336 336 336 337 336 337 337 336 335 334 334 333
283 284 284 283 282 280 281 280 280 283 289 292 294 295 295 289 280 278 287 294 293 293 296 296 297 298 299 299 300 299 300 303 304 305 302 298 296 296 297 298 299 300 300 301 301 299 298 300 301 302 303 304 307 308 308 308 308 307 307 307 308 311 312 311 310 310 311 312 315 319 323 327 332 335 336 336 336 336 336 337 337 336 335 334 333 332
283 282 281 281 283 283 282 280 279 275 286 294 294 292 295 284 284 291 293 295 297 296 296 297 298 299 300 299 301 302 302 303 303 303 303 298 296 294 296 297 297 298 298 299 299 299 300 299 301 301 302 303 304 306 308 308 306 306 306 306 307 309 309 310 310 310 311 312 314 316 321 326 330 333 336 335 335 336 335 336 336 335 334 333 332 332
287 282 282 282 285 280 280 278 279 285 290 295 293 286 291 293 296 296 296 294 297 297 297 297 299 300 301 301 301 301 302 302 302 303 303 298 295 294 294 296 298 299 300 300 299 299 301 301 301 301 301 303 304 305 307 308 307 306 305 306 307 307 308 308 309 309 309 310 312 315 318 324 328 333 334 334 334 335 335 334 335 334 333 333 332 332
287 285 286 282 285 284 282 283 288 292 293 295 296 295 296 298 299 298 298 297 296 297 299 298 298 301 302 302 302 302 301 302 302 303 302 302 297 295 294 295 296 299 301 302 303 302 299 300 299 300 300 300 302 304 306 307 307 306 306 306 307 305 306 307 308 308 308 309 311 314 318 323 327 331 331 330 332 333 333 332 333 332 333 332 332 332
291 292 289 286 285 289 291 292 293 293 294 294 295 296 296 297 299 300 299 297 298 298 299 298 300 301 302 303 301 301 302 302 302 303 303 303 303 299 297 296 296 297 298 299 301 302 305 303 299 299 299 299 301 302 303 305 307 306 306 307 308 307 307 307 307 307 307 309 310 313 318 321 326 330 330 331 331 330 334 333 331 332 332 332 332 332
290 291 288 285 288 285 283 290 290 291 293 293 293 295 296 298 298 300 299 299 299 299 300 301 301 302 302 302 302 301 302 303 302 303 303 303 303 304 302 298 297 297 297 298 300 301 304 305 306 303 301 300 300 302 303 303 305 306 306 307 308 308 308 306 306 306 307 308 310 312 316 320 325 328 330 330 331 332 331 332 333 332 329 331 332 331
283 292 287 286 287 284 285 290 291 292 292 293 292 292 293 295 296 298 299 300 300 300 300 301 302 301 302 301 302 302 302 303 302 302 302 303 303 303 304 307 301 300 300 300 301 302 302 304 306 307 307 307 307 306 305 304 303 304 305 306 307 307 307 306 306 306 307 307 308 310 315 320 312 320 329 329 331 331 330 332 333 332 331 331 332 331
290 292 284 289 285 287 290 291 291 291 292 293 293 293 294 295 295 296 297 298 298 298 299 301 302 301 301 301 302 302 301 302 303 303 302 302 303 303 303 304 308 305 303 302 302 302 304 305 307 309 308 308 308 309 310 310 309 307 305 306 306 306 306 306 304 306 306 308 309 310 313 319 323 325 328 330 330 332 332 332 331 331 332 334 335 334
289 285 289 287 284 284 285 288 290 286 286 291 292 293 294 295 295 295 296 297 297 297 298 299 300 301 302 302 302 302 301 302 303 303 302 302 303 303 303 304 304 305 307 310 309 307 307 307 308 309 309 308 309 309 309 310 312 313 313 311 309 308 307 306 306 306 307 308 309 310 314 319 324 326 326 328 329 329 319 307 310 324 333 331 318 314
290 290 288 285 286 286 291 292 292 290 290 292 293 294 295 295 295 294 295 296 296 297 298 299 299 299 300 301 302 302 302 302 303 303 302 302 302 304 304 304 303 303 304 307 308 310 311 311 312 312 311 311 311 312 312 312 313 313 314 317 316 313 311 310 309 309 309 309 310 311 316 321 325 328 328 330 330 328 325 319 311 301 300 307 315 308
Wind_Speed
3 3 3 4 7 8 7 6 8 9 7 7 7 4 5 4 5 5 5 7 4 2 7 8 5 4 5 6 9 8 3 2 6 11 8 11 7 6 13 11 13 13 16 11 8 6 7 7 8 7 9 11 11 11 13 11 9 12 14 12 11 9 11 11 10 8 8 9 7 7 10 10 9 8 7 7 7 9 8 9 9 8 7 7 7 6
5 1 6 8 9 9 10 7 6 6 6 8 7 5 7 3 5 4 4 6 6 3 5 6 3 4 7 6 7 5 2 5 5 8 13 15 8 9 8 21 20 20 9 5 4 7 8 8 6 5 7 7 11 10 12 13 14 13 13 13 12 9 10 12 11 9 6 5 6 5 6 6 8 8 7 6 7 8 8 9 9 8 7 7 7 6
4 7 9 9 9 6 6 9 9 8 9 4 7 7 4 6 5 7 6 3 5 3 8 9 7 4 7 7 8 10 6 4 5 7 8 12 15 14 15 12 18 13 10 9 11 11 12 12 9 7 7 9 10 10 12 12 13 12 11 11 10 10 11 11 11 9 8 4 5 5 5 7 5 4 6 7 8 8 9 9 9 8 8 7 6 7
2 5 10 11 4 4 2 3 1 1 1 4 1 0 4 3 2 4 5 4 6 0 4 9 10 8 5 5 7 10 8 4 5 6 7 11 11 15 17 14 11 11 11 13 11 10 11 13 12 10 9 7 5 6 6 7 10 11 11 11 11 11 11 10 10 9 5 6 4 4 6 6 8 6 4 4 7 7 8 8 7 7 7 7 7 7
4 9 5 5 3 1 2 4 4 4 6 2 3 1 1 1 2 5 5 3 4 7 2 5 5 6 5 4 4 8 10 6 4 4 3 5 8 11 13 15 15 13 9 7 5 9 9 9 15 16 11 8 6 5 7 10 12 10 16 16 15 13 13 11 9 8 7 7 6 5 4 5 4 3 5 5 5 8 8 8 7 8 7 8 7 7
8 4 6 10 10 3 2 5 4 1 6 6 3 3 4 3 4 5 1 4 6 5 4 6 3 4 8 7 8 8 9 9 2 3 4 2 5 7 10 11 11 8 8 17 17 10 11 14 12 14 17 15 10 9 9 9 12 12 13 16 17 14 12 13 13 11 9 9 9 8 8 8 7 8 8 9 8 7 8 9 7 7 7 8 7 7
3 5 5 5 7 3 3 2 5 1 1 2 5 1 0 2 2 2 4 3 1 2 4 3 2 5 5 9 7 6 6 9 2 1 1 1 7 7 9 8 12 15 12 7 4 5 2 3 8 12 15 19 19 14 12 11 10 9 10 11 12 12 12 12 12 14 11 9 9 11 10 7 8 9 5 5 5 7 7 7 8 7 6 7 8 7
5 10 7 7 7 6 4 3 3 4 3 3 4 3 4 3 4 3 2 1 3 3 3 3 2 1 4 7 3 3 6 5 4 2 1 1 3 8 7 9 11 14 14 13 13 13 15 8 5 9 13 15 19 22 17 14 13 13 12 13 14 12 12 11 13 15 14 13 12 11 9 8 8 8 8 7 6 5 6 7 8 7 7 6 6 8
2 6 6 7 5 3 4 2 4 3 1 5 4 2 2 1 4 4 5 1 1 1 6 6 2 1 2 5 3 1 3 3 6 3 3 1 2 5 8 8 9 12 15 18 15 14 15 18 19 13 14 13 16 17 21 20 17 15 14 14 13 13 13 11 13 15 15 13 13 11 10 9 6 6 7 6 6 7 6 7 7 8 7 7 6 7
2 1 5 5 3 5 4 4 4 4 5 5 4 3 1 2 2 4 3 3 3 2 4 2 1 1 5 7 5 2 0 2 4 4 3 3 3 4 3 9 13 12 12 14 19 19 19 20 21 24 26 21 13 12 15 20 18 16 14 14 13 13 12 12 13 14 15 14 11 10 9 11 7 7 6 6 7 6 6 7 8 8 8 7 7 6
5 5 6 2 3 1 4 5 2 2 2 6 3 4 5 5 3 1 5 2 5 1 3 2 0 2 2 6 5 2 3 3 4 4 3 2 2 3 5 3 13 13 12 13 15 19 20 21 22 20 20 18 14 11 11 11 14 14 14 14 15 15 12 12 13 13 14 13 12 12 12 11 10 9 8 7 6 6 6 7 7 8 8 7 8 7
7 6 3 2 3 3 1 5 4 2 3 4 3 2 6 8 6 4 2 5 1 3 4 1 2 2 1 5 6 5 4 2 2 5 7 6 4 4 5 5 6 12 13 15 16 18 19 15 10 6 7 9 14 13 13 12 11 12 13 14 15 13 12 12 13 13 13 13 13 12 11 11 10 10 9 10 9 8 8 7 8 7 7 8 8 8
5 3 3 5 4 5 1 6 9 7 8 8 4 7 3 3 5 3 5 2 1 4 2 1 3 2 2 8 8 7 7 7 4 5 6 6 4 4 6 6 3 3 9 14 16 16 15 15 16 16 14 4 8 9 14 15 13 12 13 15 16 15 14 13 13 14 14 13 13 13 13 12 9 10 10 9 9 8 8 7 7 7 8 8 8 9
6 5 4 5 5 3 1 1 4 5 5 7 6 1 3 1 1 2 4 2 3 5 3 3 0 2 4 6 8 9 8 6 5 4 5 5 4 6 7 8 6 1 4 7 12 15 17 16 16 16 15 17 16 15 11 13 14 14 14 15 16 16 15 13 13 14 15 15 14 13 13 12 10 10 10 9 10 9 8 7 8 8 8 8 10 9
4 5 3 3 2 4 1 2 3 2 2 2 0 1 3 4 2 1 1 2 5 6 6 2 2 3 1 4 2 5 7 8 4 3 4 4 4 5 7 6 4 2 2 4 9 14 16 19 19 17 17 17 19 21 17 14 14 14 14 15 17 15 13 13 14 14 16 15 13 12 11 11 10 10 9 9 9 9 9 8 8 8 8 8 8 9
3 4 7 3 4 1 3 2 2 2 4 2 1 5 4 3 3 1 2 1 2 5 7 4 3 3 5 4 8 7 8 8 9 8 5 8 3 1 4 5 6 6 5 5 7 9 13 14 15 16 17 18 19 20 18 18 15 15 15 15 16 16 15 14 14 14 15 15 13 13 13 13 12 10 9 7 7 9 10 9 10 9 9 8 6 6
3 1 3 7 3 3 5 2 1 3 1 2 4 0 4 4 2 1 4 1 1 2 7 1 7 7 5 7 5 7 9 12 9 10 9 9 8 3 5 5 5 7 4 7 8 10 11 10 11 7 5 12 18 19 20 19 18 19 17 15 15 15 14 16 16 15 14 13 12 13 13 12 11 12 12 13 13 12 9 9 9 9 9 7 7 6
1 7 5 0 7 4 4 4 2 2 6 3 1 5 2 2 5 3 2 3 2 2 6 2 6 7 4 8 5 2 5 8 9 8 9 10 11 6 4 5 5 5 3 4 8 13 17 17 15 15 11 7 12 19 22 22 19 18 16 17 17 15 16 15 15 15 13 13 13 13 13 13 14 14 15 13 11 10 9 9 8 8 8 9 8 7
3 5 4 2 2 5 6 1 4 2 2 5 4 2 4 2 4 3 2 2 2 4 4 4 4 6 6 9 6 8 6 7 9 8 8 10 11 11 6 5 5 8 3 3 4 9 9 12 15 16 16 14 13 15 17 21 20 16 15 16 17 18 18 17 15 15 13 13 12 12 14 15 14 13 12 11 10 9 10 11 10 10 9 7 8 8
3 1 5 4 5 4 4 4 1 4 4 1 2 4 2 5 4 1 3 2 3 4 2 7 1 8 6 6 6 10 7 8 9 10 10 10 8 10 9 5 4 7 7 4 4 5 7 11 13 16 17 16 14 15 14 13 15 18 16 16 16 15 14 15 15 14 14 13 11 12 14 14 14 14 13 12 12 12 13 13 12 11 9 10 8 8
3 1 3 6 5 5 3 0 4 4 1 1 0 2 0 2 3 3 1 3 4 3 4 3 7 10 10 3 2 6 7 8 8 10 9 7 7 9 9 8 5 9 10 7 6 5 7 9 11 14 16 19 17 17 16 14 15 16 15 16 17 17 16 15 14 13 12 11 12 12 14 14 13 14 13 12 12 12 12 10 10 11 11 8 9 9
2 2 2 5 7 2 6 5 4 2 1 2 4 6 7 3 4 2 7 1 2 3 4 1 13 11 12 4 4 5 7 7 8 9 9 7 7 9 10 7 5 5 8 8 6 7 6 8 12 12 13 15 20 22 20 16 14 14 16 17 17 17 16 17 15 14 13 11 11 12 13 13 12 13 12 14 14 13 12 11 11 11 9 11 10 10
1 2 1 5 4 7 9 12 8 7 6 5 5 3 1 0 1 2 3 6 3 3 1 2 4 21 2 7 7 8 7 9 7 5 7 7 7 9 10 8 7 5 6 9 6 6 6 7 9 14 15 15 17 18 19 18 16 16 17 17 16 17 17 16 16 15 14 14 13 13 11 11 11 11 11 12 13 14 13 12 12 10 11 11 10 10
5 0 3 5 6 6 10 8 6 4 2 2 4 3 5 2 1 1 1 2 2 3 4 4 2 16 5 7 8 6 5 5 5 5 8 7 5 9 9 9 9 8 6 7 9 6 8 7 6 6 12 15 14 13 13 11 13 16 17 17 16 18 19 17 14 14 14 13 13 12 11 11 10 10 10 12 11 13 13 12 11 11 11 11 10 11
3 1 2 4 5 6 6 6 5 5 6 3 1 3 1 1 2 2 2 0 3 6 7 5 10 12 4 3 5 4 4 8 9 11 6 8 7 6 10 7 7 8 7 6 7 11 6 5 7 8 10 12 12 11 9 7 5 2 1 7 15 17 17 16 14 15 14 14 14 12 12 11 11 11 11 12 11 12 12 11 11 10 12 11 11 11
2 2 1 2 3 5 5 2 2 3 4 4 1 2 3 4 5 6 3 3 3 2 4 7 13 17 3 4 6 7 11 13 15 16 16 12 10 8 9 11 5 7 9 8 7 8 10 9 9 8 8 10 12 12 10 8 5 4 5 4 3 7 12 14 13 14 14 13 13 12 12 12 11 12 12 12 10 10 10 11 11 11 11 12 12 11
1 0 2 3 4 6 7 5 3 1 3 5 9 8 12 9 4 1 2 4 8 5 12 13 13 21 26 20 14 17 12 14 15 16 17 18 19 12 6 9 7 6 9 11 8 7 8 7 10 11 10 10 11 11 12 11 9 8 8 6 4 3 8 10 12 13 12 12 13 12 12 12 12 12 12 11 11 9 9 9 10 11 12 11 12 12
1 1 5 5 7 9 9 11 9 5 7 10 10 11 8 6 7 7 6 10 3 6 21 5 7 14 25 19 15 14 15 13 15 16 17 18 18 21 15 9 11 6 7 9 10 6 8 10 9 11 11 10 10 11 11 11 13 12 9 10 9 8 5 10 9 11 12 12 11 11 12 12 12 12 12 11 11 11 10 9 9 10 11 10 11 12
2 2 4 4 7 10 9 11 9 7 8 7 8 8 9 8 7 8 10 11 11 11 18 14 14 21 25 21 20 18 17 18 16 16 16 17 18 19 19 15 14 14 9 9 10 11 7 8 10 10 10 11 11 12 11 11 12 13 11 10 9 10 11 11 15 10 11 11 12 12 11 11 10 10 10 11 11 12 11 10 10 10 10 11 11 11
1 3 4 4 8 9 10 10 10 11 8 8 7 6 5 6 8 9 10 12 13 15 16 17 19 26 24 21 21 22 20 21 23 22 19 18 19 19 20 19 16 17 15 12 12 13 13 9 10 12 11 10 11 11 11 11 11 11 11 11 11 10 10 11 11 15 11 12 13 11 11 11 10 11 11 11 12 12 11 11 10 10 10 12 12 11
0 3 1 1 4 11 8 8 9 10 8 8 6 3 6 7 7 8 8 11 13 15 16 16 19 22 18 11 19 19 17 17 20 25 25 22 20 19 19 20 18 17 17 13 12 11 13 12 6 10 11 10 12 13 12 11 10 11 11 12 11 12 13 13 14 17 12 13 12 11 11 11 12 11 12 12 12 11 11 11 10 10 11 11 11 12
1 3 2 1 3 7 1 3 6 7 9 10 5 3 3 6 7 6 9 8 8 14 16 17 19 17 15 7 11 14 17 19 21 21 22 21 21 22 24 25 23 20 20 17 14 12 12 14 8 7 10 12 11 10 11 10 9 9 10 10 11 13 13 16 18 17 14 10 10 10 11 11 11 12 12 12 12 12 11 11 10 10 11 11 11 11
3 1 3 2 3 6 2 2 6 6 4 4 4 2 5 8 8 12 12 14 15 15 14 14 16 14 16 15 17 17 18 22 24 22 21 23 23 22 23 24 24 21 20 19 16 12 11 13 12 8 9 8 11 11 11 12 10 11 11 11 10 10 10 12 15 17 15 11 9 11 11 11 11 12 12 12 12 11 11 11 11 11 11 13 12 11
1 3 3 0 3 5 8 9 7 1 2 2 3 5 1 10 13 14 16 19 18 8 11 12 18 20 21 20 20 21 24 23 23 23 23 21 19 20 23 23 23 21 19 18 16 14 13 12 12 9 9 9 9 12 12 11 13 12 12 12 11 10 10 11 10 11 11 10 10 10 11 11 11 12 12 11 11 11 11 11 12 12 11 10 10 11
4 3 3 1 3 4 7 8 5 2 1 2 4 8 6 12 11 13 18 18 19 16 16 19 21 21 23 21 23 24 22 26 30 29 29 26 23 20 17 18 23 23 20 18 17 14 12 12 13 11 6 7 7 5 5 7 10 10 9 11 11 10 10 9 9 7 7 9 9 9 10 11 12 12 11 11 11 11 12 12 12 12 11 10 12 13
3 4 3 2 3 3 3 6 6 2 4 5 6 10 8 9 8 14 19 16 12 11 11 16 21 22 23 24 25 25 27 31 30 30 30 29 27 25 23 19 17 15 16 16 16 15 13 11 13 11 10 6 5 8 8 8 5 6 10 9 10 9 9 8 7 7 6 6 7 10 10 11 12 12 11 11 12 12 13 13 13 13 11 10 10 10
2 0 1 3 1 6 6 6 7 1 4 1 4 8 13 12 16 15 15 22 20 9 8 12 18 21 22 24 25 25 29 28 25 25 27 27 29 28 27 25 21 18 14 11 14 15 14 12 12 12 8 6 7 6 8 8 9 10 7 7 9 9 7 7 7 7 7 7 6 7 9 11 12 12 12 12 13 13 13 13 13 12 10 10 11 11
1 3 1 2 2 1 5 5 4 1 2 2 6 11 7 10 12 11 9 20 10 1 6 12 20 25 27 27 23 23 25 19 14 17 21 22 26 28 27 25 22 19 15 11 6 11 13 11 10 9 9 9 7 6 5 6 10 9 9 10 8 8 8 8 8 7 7 7 7 8 8 10 12 13 13 13 14 15 14 13 11 12 10 12 12 12
2 1 0 2 3 4 5 4 4 3 1 2 16 16 16 15 14 9 7 14 2 14 25 22 24 26 26 25 22 23 21 17 17 14 9 11 20 25 26 25 23 21 18 15 11 8 11 12 12 10 8 9 8 8 6 5 5 8 8 8 8 8 8 8 6 6 7 7 7 7 8 10 12 14 14 15 15 14 14 13 12 10 10 11 11 11
2 4 4 4 4 4 4 4 4 1 3 7 14 14 19 18 15 7 9 15 21 28 26 23 24 26 25 24 20 19 18 21 20 16 5 10 15 20 22 23 21 20 18 15 12 10 10 10 9 8 9 9 9 8 8 6 5 6 7 7 6 7 6 6 6 5 4 4 5 6 9 10 12 14 15 16 15 13 13 11 10 11 11 10 9 9
4 3 3 5 2 7 6 3 3 2 2 6 13 15 17 17 9 8 11 14 22 26 25 23 26 24 21 21 18 18 17 17 20 20 11 8 9 9 14 16 18 18 18 15 13 11 10 10 10 11 10 9 8 7 8 7 6 6 5 5 7 7 7 7 6 5 4 4 4 5 7 9 12 14 15 14 14 13 12 11 12 11 11 11 10 9
5 2 1 1 6 6 4 4 5 4 3 4 9 14 13 11 11 17 13 14 18 23 25 24 24 23 21 20 17 18 21 24 24 21 12 9 7 7 11 14 14 14 12 13 11 9 10 10 9 10 9 8 10 8 6 6 7 6 6 5 6 7 8 7 6 6 5 4 4 4 6 9 11 13 13 13 12 12 12 12 12 12 12 11 11 12
4 3 6 6 3 2 2 5 6 8 4 13 15 6 2 12 9 10 16 18 16 20 23 23 20 21 20 19 19 20 24 27 27 24 19 9 4 3 8 11 13 14 12 10 7 8 11 10 10 10 10 7 7 7 7 8 6 5 5 7 7 6 5 6 7 7 5 4 4 4 5 6 11 12 10 12 13 14 14 12 12 11 11 12 12 12
0 2 2 2 0 4 5 8 6 6 12 13 9 8 11 7 10 12 12 16 17 17 19 18 20 20 22 20 19 20 24 27 28 25 21 3 3 3 2 4 7 9 8 6 7 8 10 10 10 9 8 8 7 7 7 8 7 6 5 6 6 5 5 5 5 5 5 4 4 4 4 6 9 11 10 12 13 14 14 13 12 12 11 12 12 11
1 1 2 4 3 2 3 3 9 10 11 10 6 8 10 13 12 13 11 12 14 17 19 16 20 21 22 22 21 20 22 26 26 23 21 12 2 1 3 1 3 7 8 9 6 5 5 8 8 8 6 5 6 7 7 7 8 7 7 5 4 4 5 5 3 4 4 4 4 4 4 5 7 10 9 8 11 13 13 12 12 11 11 12 12 12
2 2 1 2 4 3 5 10 9 8 10 11 8 6 8 11 12 9 9 12 14 16 16 16 18 20 21 21 21 20 21 23 23 20 20 20 12 1 1 1 1 1 2 3 3 3 4 4 4 5 5 5 5 6 6 6 8 8 6 5 5 5 4 3 4 4 5 4 4 5 5 5 7 9 12 13 12 11 12 14 14 13 12 12 12 12
2 1 1 3 4 2 3 6 6 9 9 10 8 7 7 8 10 9 10 9 13 16 17 17 17 19 21 20 21 18 20 22 23 20 19 20 19 16 5 2 1 2 3 3 4 4 3 3 3 4 5 6 5 6 6 7 7 8 7 8 7 6 5 5 5 6 5 6 6 5 5 6 7 8 10 10 10 12 12 12 14 14 13 13 13 13
4 1 1 2 4 1 6 9 10 7 8 8 6 7 11 13 13 11 9 10 12 14 16 17 17 19 19 20 22 20 18 20 21 19 18 18 20 18 17 8 2 0 1 1 0 1 2 3 4 5 5 6 5 6 6 6 7 8 8 8 7 7 7 7 7 8 9 8 6 6 6 7 11 12 10 10 12 11 10 10 13 14 14 14 15 14
4 2 3 3 2 6 7 8 7 6 6 6 5 5 7 11 13 14 14 14 14 16 19 21 18 17 18 20 22 21 22 23 23 22 22 20 19 18 17 17 13 3 1 2 3 3 5 5 6 6 6 6 5 5 6 7 8 9 9 8 8 7 8 9 9 9 9 9 8 8 7 8 8 9 10 11 12 13 15 16 13 12 12 14 15 16
3 3 3 3 4 5 7 11 10 11 11 12 8 9 10 11 11 13 14 15 17 18 18 20 22 21 19 20 20 21 22 19 21 20 20 18 18 19 19 19 17 16 14 5 2 7 7 6 6 6 5 4 3 3 4 4 3 3 5 7 8 9 10 10 10 9 10 9 10 10 9 8 9 10 12 12 12 11 6 5 3 9 14 14 16 19
2 3 3 4 5 6 7 8 6 3 4 7 9 7 8 9 9 13 16 16 16 15 15 17 20 22 22 21 19 20 21 20 20 19 18 16 16 15 16 18 17 17 15 13 14 11 2 3 6 6 5 5 4 6 6 5 4 4 4 5 8 10 11 10 10 10 9 10 11 11 10 9 9 10 11 12 14 12 12 8 2 8 7 4 3 6
Wind_Direction
120 173 214 224 233 239 250 217 207 231 231 263 283 258 248 249 277 289 281 260 215 246 244 252 231 208 258 244 259 250 232 167 137 140 186 273 310 200 167 166 183 209 210 200 197 183 178 180 185 192 191 185 181 177 177 176 177 164 162 164 176 186 178 169 174 173 171 169 154 154 170 174 178 172 166 162 165 168 173 173 178 182 185 176 173 166
76 198 257 230 229 229 239 244 242 256 247 248 267 285 285 261 271 244 246 279 276 195 267 243 236 196 239 257 262 264 157 216 175 145 158 189 228 294 223 178 190 204 194 140 173 171 151 154 168 171 181 180 174 184 179 176 173 172 166 169 174 170 186 181 178 172 171 170 164 146 167 158 172 166 162 155 166 169 170 173 177 180 183 180 176 170
158 206 241 234 233 248 262 268 261 260 270 257 240 258 282 278 238 277 277 292 300 277 268 266 255 221 235 235 252 260 241 218 198 168 164 159 174 200 244 234 198 186 173 191 193 190 166 154 154 162 174 192 190 178 180 177 168 166 166 170 167 178 183 186 176 172 173 162 154 148 167 160 156 170 169 154 167 165 166 176 180 179 180 177 177 173
354 281 257 264 244 219 255 214 201 162 168 234 309 131 219 249 20 302 296 339 327 104 291 288 271 255 228 247 242 254 245 225 211 188 169 152 170 183 202 208 219 185 176 179 186 188 178 164 159 159 167 177 169 161 170 176 178 171 171 171 173 179 184 183 182 175 157 145 134 130 150 159 157 165 150 136 151 158 159 174 179 181 179 177 178 176
239 257 270 307 221 147 294 319 10 29 335 249 183 166 218 288 220 185 265 318 310 327 287 285 320 295 241 229 270 267 257 241 247 251 199 153 178 180 183 184 188 181 176 181 200 182 176 186 173 168 164 154 159 173 185 183 184 186 180 177 178 179 182 181 171 164 150 139 134 130 124 138 123 99 142 143 146 164 169 169 178 189 183 179 178 178
321 291 8 354 330 315 9 344 313 57 339 324 262 189 223 217 277 283 342 24 21 335 328 72 348 279 268 238 215 242 259 253 259 238 270 165 183 184 178 177 178 171 158 173 182 202 191 185 193 176 165 165 171 176 192 202 199 195 192 181 175 177 180 178 170 163 161 166 158 157 155 166 176 176 170 187 167 164 172 179 179 184 186 182 179 179
239 310 14 4 327 353 31 354 285 64 335 3 280 203 255 21 21 358 337 58 7 232 280 71 105 270 316 264 230 218 253 263 339 104 253 132 136 184 187 163 160 160 166 156 143 122 199 259 218 199 185 174 171 182 183 191 210 208 200 184 178 178 180 178 172 165 166 169 175 178 184 180 178 170 179 153 162 161 173 164 173 181 191 190 178 184
355 329 349 353 359 349 24 348 290 28 8 285 250 18 29 48 51 13 34 134 213 276 304 35 133 211 298 292 257 219 190 257 308 318 287 278 138 162 191 177 175 177 177 179 183 183 174 180 275 254 214 192 183 174 175 191 196 198 196 191 184 179 180 184 175 173 174 179 184 181 178 174 175 178 170 161 160 154 157 169 173 172 190 196 187 181
323 311 348 346 338 342 294 236 310 359 341 248 295 351 25 63 99 81 82 97 219 75 303 347 344 41 275 268 323 256 212 280 269 272 275 270 262 153 178 201 197 189 188 181 186 187 191 183 184 214 258 250 202 186 176 179 187 191 195 195 188 180 177 184 182 177 181 183 184 185 178 174 175 159 163 155 150 157 160 168 173 173 188 196 195 189
298 333 303 292 293 287 257 304 320 356 3 299 307 335 60 83 94 112 90 67 333 64 273 335 47 146 278 281 337 324 126 271 263 264 257 240 250 269 170 170 198 194 192 196 185 189 189 194 194 193 198 217 226 200 189 177 177 183 187 191 189 186 182 180 185 185 185 183 177 179 184 180 168 159 159 161 165 168 159 170 176 176 184 193 196 196
263 269 257 253 271 274 317 309 288 339 289 267 13 30 350 14 22 12 82 106 54 13 260 214 271 130 281 271 236 169 217 207 248 296 287 290 288 284 268 172 169 194 198 196 200 194 194 198 200 197 197 202 206 197 186 185 177 177 183 188 189 190 184 181 184 185 186 184 183 185 183 181 172 167 159 167 183 176 171 175 177 180 185 190 194 194
321 320 1 271 315 304 3 334 322 9 6 44 28 25 10 333 1 39 345 40 90 274 263 228 97 105 150 293 293 226 247 221 285 291 294 300 274 272 280 283 137 192 192 200 202 205 205 197 183 186 230 223 202 191 185 183 183 181 183 186 189 189 185 185 185 185 188 187 188 184 177 179 177 172 174 180 190 187 183 181 180 179 175 190 194 196
323 295 271 317 306 26 23 4 317 1 10 28 28 33 75 285 27 335 15 351 190 205 240 290 22 41 243 225 255 294 288 291 222 226 263 273 293 286 297 302 348 167 205 203 203 205 203 195 190 185 178 192 285 227 190 183 183 185 186 187 187 189 187 187 186 188 189 190 188 182 181 181 177 180 179 182 193 190 190 180 177 178 190 184 191 201
286 296 11 322 2 353 81 49 310 0 346 24 20 50 69 33 32 294 281 206 307 283 239 40 37 218 245 278 241 247 275 269 289 263 254 261 262 280 285 298 307 290 234 214 213 207 198 198 196 189 181 174 186 228 218 193 184 185 189 187 188 190 186 184 188 192 191 194 190 185 181 178 177 184 184 187 197 197 190 182 187 189 192 194 199 198
20 351 313 348 343 295 32 191 183 194 5 262 187 191 193 136 157 245 268 274 258 245 289 309 53 239 146 240 265 271 269 283 264 244 250 239 225 235 258 274 299 323 249 252 223 205 204 198 191 187 187 183 187 192 196 197 193 189 190 186 188 186 188 187 191 192 195 194 189 184 182 179 179 184 188 192 194 192 195 194 193 194 194 201 206 207
191 199 252 228 225 345 295 270 189 62 354 319 30 90 55 274 145 215 205 203 288 322 330 346 200 210 199 267 302 297 303 308 311 312 323 310 290 225 283 279 281 278 235 217 216 213 202 197 198 194 191 188 189 190 188 189 187 190 192 188 187 186 184 188 194 200 196 193 187 183 182 184 183 183 185 187 186 193 191 193 196 200 200 203 202 211
7 305 271 317 258 218 233 239 291 114 203 269 35 5 210 195 111 4 340 325 50 36 265 228 318 293 308 317 290 296 308 301 311 311 314 302 299 335 303 287 261 251 228 194 202 196 191 184 174 174 224 212 192 187 185 185 187 189 186 186 190 190 187 189 194 198 201 194 185 186 186 184 182 181 187 193 194 190 185 186 190 194 196 193 195 203
349 269 284 1 325 299 223 201 202 160 143 87 327 250 271 50 110 115 222 321 32 220 263 330 256 300 18 284 297 329 297 286 301 300 298 304 306 314 286 285 253 234 190 248 225 207 189 183 187 187 181 241 248 196 184 184 185 186 184 185 186 186 189 196 196 197 198 194 190 188 187 189 189 191 194 193 190 183 179 187 188 189 192 196 194 198
358 330 300 265 281 308 339 76 355 319 124 167 192 222 69 343 344 324 85 321 304 288 283 293 263 264 217 258 282 281 282 292 298 305 319 309 308 301 295 279 254 277 264 169 241 230 214 199 187 183 182 191 238 248 207 184 181 182 183 186 187 188 192 192 194 197 198 196 192 188 187 189 193 196 195 193 186 178 185 189 190 194 196 184 192 194
340 290 302 315 42 315 354 61 259 295 328 284 43 350 145 116 172 59 192 180 125 260 7 292 327 255 216 224 221 256 259 265 280 293 290 283 285 293 299 302 246 252 252 189 179 237 225 194 187 185 181 181 207 250 242 207 185 180 183 184 190 195 194 194 196 194 194 197 200 198 189 190 194 193 192 189 183 185 193 195 190 190 189 194 185 196
306 108 259 279 321 18 1 298 202 173 211 350 85 296 246 236 210 148 47 168 175 195 191 242 286 256 246 192 191 244 253 256 263 268 273 280 278 277 281 288 261 227 231 232 184 193 214 208 202 198 192 182 191 216 224 216 196 188 186 188 190 191 193 196 198 193 198 195 201 201 195 191 192 195 194 191 190 191 195 193 191 192 194 176 194 191
8 359 250 313 340 311 246 229 256 284 132 179 183 213 199 207 275 255 264 329 189 192 228 183 259 273 251 161 205 234 247 253 255 260 271 270 272 281 289 291 294 259 249 222 222 177 197 203 203 205 203 199 191 205 208 211 201 196 192 192 193 193 192 192 193 194 194 194 201 202 199 194 194 199 197 193 191 193 192 191 193 193 181 191 195 189
66 226 277 280 233 267 279 278 265 260 270 252 195 283 347 65 93 132 232 277 356 277 260 240 350 266 230 163 210 227 246 253 256 260 272 267 269 283 287 280 283 242 243 268 219 203 194 187 194 197 202 204 205 205 207 200 196 197 196 194 193 193 196 194 192 192 189 190 195 203 203 196 196 197 204 204 197 194 192 191 188 184 188 193 192 193
306 59 343 294 299 286 281 274 287 333 312 14 18 21 36 29 146 184 176 192 263 292 332 319 245 278 121 177 205 219 248 278 286 249 266 270 257 274 278 286 277 283 269 248 266 217 191 193 195 188 189 198 205 211 210 211 210 200 194 193 194 197 195 192 192 189 189 191 195 196 194 196 197 199 201 207 210 203 194 189 185 179 188 191 188 192
12 306 71 318 335 325 337 352 10 342 51 74 313 317 122 103 60 284 273 21 250 201 190 224 251 258 23 12 349 330 299 288 287 284 249 267 266 254 282 282 277 272 269 264 248 255 221 187 178 190 181 189 202 198 188 181 158 93 269 228 202 197 196 193 189 187 189 188 190 189 192 196 195 198 202 208 212 211 200 191 184 180 185 187 192 192
242 234 84 301 323 324 315 333 316 327 308 291 223 318 307 325 331 4 356 353 281 284 224 224 250 262 276 313 305 290 295 293 291 288 290 277 264 265 278 283 262 271 273 263 251 255 241 200 196 185 189 185 189 186 185 185 200 221 162 132 328 253 206 195 190 188 186 186 186 188 190 192 195 200 204 206 212 216 209 197 188 183 184 187 192 190
191 271 153 172 180 230 239 248 227 35 346 312 296 306 301 313 305 204 209 250 264 279 264 231 257 289 284 272 272 273 264 266 269 275 280 285 287 270 238 271 262 240 261 265 248 217 247 244 196 196 190 182 185 186 185 187 194 203 204 203 170 330 294 224 193 188 186 186 187 188 190 190 195 199 202 204 207 210 212 209 196 185 185 188 189 188
73 304 233 211 229 238 252 257 261 277 271 273 279 284 294 297 307 305 265 267 278 293 270 247 223 251 268 283 278 275 272 262 262 263 263 270 271 277 274 257 271 253 255 271 280 248 200 233 235 201 193 182 181 185 184 185 183 199 217 207 189 202 270 296 234 191 186 182 187 189 191 194 195 198 200 201 203 207 210 209 202 194 188 182 187 192
152 230 261 189 245 246 248 260 269 266 249 261 274 289 297 320 316 285 278 280 274 248 264 292 287 274 271 277 282 282 284 282 274 262 261 259 262 266 271 265 266 268 259 263 265 271 252 198 226 236 206 189 176 180 185 182 183 188 192 195 190 179 193 254 279 227 187 185 188 191 191 190 193 195 198 200 203 206 207 204 203 196 189 187 192 192
92 241 248 223 268 266 258 261 261 261 265 264 261 271 299 298 285 276 274 272 268 268 277 286 279 272 273 279 280 277 274 275 275 274 266 257 254 256 261 262 257 261 260 256 259 261 264 240 201 217 225 197 180 182 182 182 177 179 183 190 178 175 180 175 245 257 209 191 191 192 187 188 189 192 196 199 203 206 205 204 201 195 191 192 193 192
105 272 282 318 302 283 267 242 246 244 234 251 242 175 246 262 269 269 264 265 268 269 269 269 275 279 273 261 271 275 273 268 268 270 266 258 252 249 253 258 255 255 260 253 251 254 261 263 216 210 209 214 191 182 182 183 178 173 179 183 181 185 186 175 200 244 236 197 197 191 189 189 193 193 197 201 203 203 204 204 199 197 196 193 190 190
190 263 346 281 284 292 323 205 244 243 235 235 226 224 283 296 295 292 285 273 261 273 278 278 279 273 286 282 275 280 282 277 269 263 264 262 252 246 245 250 251 249 254 253 247 244 251 260 241 203 216 203 200 189 179 179 178 170 185 184 181 183 180 181 188 201 233 218 194 190 191 194 193 195 200 200 202 201 202 203 200 199 198 194 190 190
210 247 309 293 285 260 265 300 289 286 252 213 145 191 233 254 263 273 263 258 248 254 263 268 266 269 278 284 286 276 268 271 270 266 266 261 253 244 242 240 244 242 241 246 241 236 238 247 251 213 211 223 200 188 187 177 173 180 183 184 191 183 182 187 187 198 203 204 197 194 194 194 194 197 199 201 200 199 200 201 202 202 199 199 194 185
268 258 271 144 256 290 308 317 305 6 56 126 146 154 312 323 313 304 303 301 292 244 245 249 263 270 273 273 265 264 265 257 259 262 256 258 258 249 243 241 242 239 234 238 237 235 234 241 249 234 203 208 212 191 186 180 177 184 183 183 177 176 188 186 191 189 194 194 194 195 196 197 198 199 200 199 199 199 202 202 205 205 202 197 189 191
307 311 276 185 268 288 316 318 335 50 57 120 159 192 284 323 309 293 283 282 281 275 262 258 258 261 263 265 267 264 258 255 256 257 258 254 254 256 251 242 236 236 231 231 233 229 226 228 233 231 216 205 201 213 174 180 181 173 176 172 173 183 179 182 186 195 194 193 196 194 196 199 202 204 202 199 198 200 202 204 207 205 199 195 194 195
312 348 299 304 244 273 312 350 345 335 138 160 222 216 279 295 296 311 303 286 262 257 256 265 267 273 278 280 279 276 269 265 255 249 248 247 242 244 248 243 244 238 229 220 223 222 217 215 217 211 208 203 185 182 178 185 185 170 173 173 167 170 172 179 187 196 196 206 204 199 197 199 204 205 203 202 200 200 203 204 204 203 198 197 200 201
217 354 34 314 32 336 331 311 284 182 135 234 355 345 350 333 322 327 310 298 296 310 273 263 275 280 281 281 281 278 276 268 259 255 245 237 237 235 237 241 235 235 235 227 213 216 209 204 207 206 192 187 192 186 185 180 171 178 191 184 174 167 174 169 182 194 199 206 209 216 208 200 202 206 205 203 203 203 203 203 203 202 191 197 200 197
124 49 298 15 293 263 325 304 306 325 309 12 319 308 302 296 297 293 289 285 311 249 279 292 299 301 298 294 288 288 293 293 277 259 257 233 229 231 231 234 233 230 228 230 225 214 208 204 201 211 187 182 193 208 216 194 169 174 181 191 191 174 171 175 191 196 194 202 202 206 215 211 204 205 205 204 206 205 204 202 199 197 187 195 196 200
16 75 109 129 274 328 338 331 335 308 255 198 336 327 317 317 310 320 281 271 251 326 326 325 312 305 303 304 309 316 315 318 309 293 282 217 219 221 224 223 222 220 222 222 216 211 205 196 186 185 184 168 177 206 198 207 190 167 180 190 192 192 187 183 190 191 198 206 203 204 212 215 213 208 205 206 208 205 201 196 195 194 187 197 198 203
6 349 5 30 1 349 315 330 339 312 324 334 325 324 325 312 319 301 322 331 335 327 318 315 308 307 306 308 314 318 321 319 315 311 279 218 221 216 212 213 210 211 217 219 217 211 204 194 177 169 167 169 182 189 188 181 183 190 183 188 184 182 185 185 188 194 197 215 217 211 213 216 217 212 208 208 207 202 199 191 190 191 189 194 196 198
355 344 33 358 303 340 342 286 264 285 243 285 322 325 323 310 299 344 353 302 315 310 309 309 309 309 310 314 324 322 319 307 311 309 279 239 236 222 206 208 205 200 207 209 212 209 196 194 183 177 175 178 175 173 172 163 166 193 206 190 178 192 194 182 173 176 189 203 220 237 231 224 218 215 213 208 202 197 193 191 192 188 187 192 194 193
6 325 240 303 6 346 313 312 293 266 221 264 317 331 314 320 12 341 299 297 298 304 312 314 314 313 315 319 327 324 320 321 323 325 299 236 232 211 194 198 196 190 199 206 203 197 191 178 183 179 179 176 167 161 152 147 157 173 176 173 206 208 188 166 165 167 173 190 207 228 235 237 232 220 213 206 197 193 195 195 190 187 188 190 190 193
330 358 345 342 310 231 336 331 343 5 316 316 326 318 54 2 308 279 294 301 309 314 317 317 316 314 322 324 326 324 330 334 336 334 329 238 210 156 183 181 183 180 182 188 199 194 175 171 171 176 177 176 168 163 160 151 166 177 170 178 203 209 208 187 169 163 168 184 203 222 235 243 241 231 217 205 196 191 194 189 188 188 187 187 190 195
255 66 320 292 138 328 359 10 3 270 282 302 353 326 315 270 269 280 293 307 319 321 321 322 317 321 327 329 333 334 336 340 341 340 345 303 231 113 78 139 158 161 161 160 162 167 164 160 165 168 171 167 166 163 159 158 171 186 191 212 209 190 205 206 179 161 171 187 206 225 239 244 245 238 230 208 196 194 189 186 187 185 186 187 188 194
5 91 241 285 290 18 303 246 244 264 278 293 287 264 268 277 278 278 287 301 314 322 320 321 320 325 333 335 336 341 346 344 340 343 356 360 236 134 154 122 112 144 149 150 141 128 128 145 159 161 165 166 165 163 163 166 173 185 199 223 207 208 200 212 205 176 186 198 207 217 232 242 240 230 222 223 207 193 187 185 180 185 191 188 192 194
256 245 130 108 277 253 253 240 269 298 298 291 283 263 284 294 287 284 295 309 322 318 319 319 323 332 336 339 343 346 347 341 340 346 3 18 22 24 84 107 162 86 78 79 84 100 105 117 137 150 168 182 170 170 168 174 169 182 201 201 215 226 218 211 229 241 228 221 217 221 226 240 238 230 222 208 195 202 197 184 183 188 188 191 195 195
277 279 39 261 295 33 327 306 305 299 306 300 297 301 293 296 304 306 301 303 313 320 321 327 333 338 341 343 344 342 342 345 347 352 5 16 23 26 27 207 236 204 186 179 177 140 122 116 124 166 185 197 197 181 186 184 191 192 190 198 202 205 217 232 236 244 243 232 231 231 227 232 233 228 223 211 210 196 194 195 187 186 186 191 195 195
321 256 311 250 306 270 290 297 297 296 285 290 305 321 333 333 331 328 317 307 313 321 332 335 341 346 346 347 347 349 346 349 354 355 5 13 19 20 23 19 209 242 278 215 143 147 162 171 185 187 184 198 198 184 186 193 196 198 198 202 200 206 211 221 225 232 242 241 234 238 232 233 223 221 220 216 206 195 197 203 193 187 190 193 193 191
253 2 307 327 317 275 276 278 298 308 268 293 337 333 322 330 332 333 334 334 336 342 342 342 351 351 351 351 349 350 353 356 360 2 9 12 14 16 22 35 40 36 282 231 227 199 205 204 208 209 204 217 211 197 193 194 194 197 199 199 201 204 214 225 231 232 239 241 243 243 233 228 222 215 219 206 207 208 192 190 192 198 204 201 192 189
23 324 293 24 334 337 340 333 342 358 350 338 351 346 337 333 333 331 339 344 350 351 349 346 348 352 356 355 353 352 358 358 1 2 10 11 10 13 21 27 35 34 23 19 160 196 212 217 211 207 202 205 175 157 170 178 199 211 204 198 200 201 211 220 227 232 237 240 240 239 230 228 224 212 206 202 207 208 215 322 297 214 198 195 202 199
266 284 6 344 335 313 307 315 327 298 281 309 336 335 336 333 336 346 347 346 347 350 348 349 352 354 356 355 355 356 356 359 4 5 10 13 14 17 25 28 32 33 27 27 41 31 44 173 179 175 168 169 167 159 160 159 165 175 201 210 205 198 207 211 221 226 235 234 234 226 223 219 217 210 208 208 202 198 194 179 104 44 34 345 175 186